SCP
0 0 0 0 0 0 0 0 0 0 0 0 0 0 0 0 0 0 0 0 0 0 0 0 0 0 0 0 0 0 0 0 0 0 0 0 0 0 0 0 0 0 0 0 0 0 0 0 0 0 0 0 0 0
0 0 0 0 0 0 0 0 0 0 0 0 0 0 0 0 0 0 0 0 0 0 0 0 0 0 0 0 0 0 0 0 0 0 0 0 0 0 0 0 0 0 0 0 0 0 0 0 0 0 0 0 0 0
0 0 0 0 0 0 0 0 0 0 0 0 0 0 0 0 0 0 0 0 0 0 0 0 0 0 0 0 0 0 0 0 0 0 0 0 0 0 0 0 0 0 0 0 0 0 0 0 0 0 0 0 0 0
0 0 0 0 0 0 0 0 0 0 0 0 0 0 0 0 0 0 0 0 0 0 0 0 0 0 0 0 0 0 0 0 0 0 0 0 0 0 0 0 0 0 0 0 0 0 0 0 0 0 0 0 0 0
0 0 0 0 0 0 0 0 0 0 0 0 0 0 0 0 0 0 0 0 0 0 0 0 0 0 0 0 0 0 0 0 0 0 0 0 0 0 0 0 0 0 0 0 0 0 0 0 0 0 0 0 0 0
0 0 0 0 0 0 0 0 0 0 0 0 0 0 0 0 0 0 0 0 0 0 0 0 0 0 0 0 0 0 0 0 0 0 0 0 0 0 0 0 0 0 0 0 0 0 0 0 0 0 0 0 0 0
0 0 0 0 0 0 0 0 0 0 0 0 0 0 0 0 0 0 0 0 0 0 0 0 0 0 0 0 0 0 0 0 0 0 0 0 0 0 0 0 0 0 0 0 0 0 0 0 0 0 0 0 0 0
0 0 0 0 0 0 0 0 0 0 0 0 0 0 0 0 0 0 0 0 0 0 0 0 0 0 0 0 0 0 0 0 0 0 0 0 0 0 0 0 0 0 0 0 0 0 0 0 0 0 0 0 0 0
0 0 0 0 0 0 0 0 0 0 0 0 0 0 0 0 0 0 0 0 0 0 0 0 0 0 0 0 0 0 0 0 0 0 0 0 0 0 0 0 0 0 0 0 0 0 0 0 0 0 0 0 0 0
0 0 0 0 0 0 0 0 0 0 0 0 0 0 0 0 0 0 0 0 0 0 0 0 0 0 0 0 0 0 0 0 0 0 0 0 0 0 0 0 0 0 0 0 0 0 0 0 0 0 0 0 0 0
0 0 0 0 0 0 0 0 0 0 0 0 0 0 0 0 0 0 0 0 0 0 0 0 0 0 0 0 0 0 0 0 0 0 0 0 0 0 0 0 0 0 0 0 0 0 0 0 0 0 0 0 0 -0
0 0 0 0 0 0 0 0 0 0 0 0 0 0 0 0 0 0 0 0 0 0 0 0 0 0 0 0 0 0 0 0 0 0 0 0 0 0 0 0 0 0 0 0 0 0 0 0 0 0 0 0 0 0
0 0 0 0 0 0 0 0 0 0 0 0 0 0 0 0 0 0 0 0 0 0 0 0 0 0 0 0 0 0 0 0 0 0 0 0 0 0 0 0 0 0 0 0 0 0 0 0 0 0 0 0 0 0
0 0 0 0 0 0 0 0 0 0 0 0 0 0 0 0 0 0 0 0 0 0 0 0 0 0 0 0 0 0 0 0 0 0 0 0 0 0 0 0 0 0 0 0 0 0 0 0 0 0 0 0 0 -0
0 0 0 0 0 0 0 0 0 0 0 0 0 0 0 0 0 0 -0 0 0 0 0 0 0 0 0 0 0 0 0 0 0 0 0 0 0 0 0 0 0 0 0 0 0 0 0 0 0 0 0 0 0 0
0 0 0 0 0 0 0 0 0 0 0 0 0 0 0 0 0 0 0 0 0 0 0 0 0 0 0 0 0 0 0 0 0 0 0 0 0 0 0 0 0 0 0 0 0 0 0 0 0 0 0 0 0 -0
0 0 0 0 0 0 0 0 0 0 0 0 0 0 0 0 0 0 0 0 0 0 0 0 0 0 0 0 0 0 0 0 0 0 0 0 0 0 0 0 0 0 0 0 0 0 0 0 0 0 -0 -0 -0 -0
0 0 0 0 0 0 0 0 0 0 0 0 0 0 0 0 0 0 0 0 0 0 0 0 0 0 0 0 0 0 0 0 0 0 0 0 0 0 0 0 0 0 0 0 0 0 0 0 0 0 -0 -0 0 -0
0 0 0 0 0 0 0 0 0 0 0 0 0 0 0 0 0 0 0 0 0 0 0 0 0 0 0 0 0 0 0 0 0 0 0 0 0 0 0 0 0 0 0 0 0 0 0 0 0 -0 -0 -0 -0 -0
0 0 0 0 0 0 0 0 0 0 0 0 0 0 0 0 0 0 0 0 0 0 0 0 0 0 0 0 0 0 0 0 0 0 0 0 0 0 0 0 0 0 0 0 0 0 0 0 0 -0 -0 -0 -0 -0
0 0 0 0 0 0 0 0 0 0 0 0 0 0 0 0 0 0 0 0 0 0 0 0 0 0 0 0 0 0 0 0 0 0 0 0 0 0 0 0 0 0 -0 0 0 0 0 0 0 -0 -0 -0 -0 -0
0 0 0 0 0 0 0 0 0 0 0 0 0 0 0 0 0 0 0 0 0 0 0 0 0 0 0 0 0 0 0 0 0 0 0 0 0 0 0 0 0 -0 -0 0 0 0 0 0 0 -0 0 -0 -0 -0
0 0 0 0 0 0 0 0 0 0 0 0 0 0 0 0 0 0 0 0 0 0 0 0 0 0 0 0 0 0 0 0 0 0 0 0 0 0 0 0 -0 -0 -0 0 0 0 0 -0 -0 0 -0 -0 -0 0
0 0 0 0 0 0 0 0 0 0 0 0 0 0 0 0 0 0 0 0 0 0 0 0 0 0 0 0 0 0 0 0 0 0 0 0 0 0 0 0 -0 0 0 0 0 0 0 0 -0 0 -0 -0 -0 0
0 0 0 0 0 0 0 0 0 0 0 0 0 0 0 0 0 0 0 0 0 0 0 0 0 0 0 0 0 0 0 -0 0 0 -0 0 0 0 -0 -0 -0 0 0 -0 0 -0 -0 -0 -0 0 -0 -0 0 0
0 0 0 0 0 0 0 0 0 0 0 0 0 0 0 0 0 0 0 0 0 0 0 0 0 0 0 0 0 0 0 0 0 -0 0 -0 -0 -0 0 -0 0 -0 0 0 0 0 0 0 -0 -0 -0 -0 -0 0
0 0 0 0 0 0 0 0 0 0 0 0 0 0 0 0 0 0 0 0 0 0 0 0 0 0 0 0 0 0 0 0 0 -0 -0 -0 -0 -0 -0 -0 0 -0 -0 -0 0 0 -0 0 0 0 0 0 -0 -0
0 0 0 0 0 0 0 0 0 0 0 0 0 0 0 0 0 0 0 0 0 0 0 0 0 0 0 0 0 -0 0 0 -0 -0 -0 0 -0 -0 0 0 0 -0 0 0 -0 -0 0 0 -0 0 0 0 0 0
0 0 0 0 0 0 0 0 0 0 0 0 0 0 0 0 0 0 0 0 0 0 0 0 0 0 0 0 0 0 0 0 0 0 0 0 0 0 0 0 0 0 0 0 0 0 0 0 -0 0 0 0 0 0
0 0 0 0 0 0 0 0 0 0 0 0 0 0 0 0 0 0 0 0 0 0 0 0 0 0 0 0 0 0 0 0 0 -0 0 0 0 -0 0 -0 0 0 0 0 0 0 0 0 0 0 0 0 0 0
-0 0 0 0 0 0 0 0 0 0 0 0 0 0 0 0 0 0 0 0 -0 -0 -0 0 0 0 0 0 0 0 0 0 -0 -0 -0 0 -0 -0 -0 -0 0 0 0 0 0 0 0 0 0 0 0 0 0 0
-0 0 -0 -0 -0 -0 0 0 0 0 -0 -0 -0 -0 0 0 0 0 -0 -0 0 0 0 0 0 0 0 0 0 0 0 0 -0 -0 -0 -0 -0 -0 -0 0 0 0 0 0 0 0 0 0 0 0 0 0 0 0
0 0 0 0 0 0 0 0 0 0 0 0 0 0 0 0 0 0 0 0 0 0 0 0 0 0 0 0 0 0 0 0 0 0 0 0 -0 -0 0 0 0 0 -0 0 0 0 0 0 0 0 0 0 0 0
Wind_Speed_500mb
62 49 64 61 58 52 50 43 41 36 30 26 21 17 12 11 11 7 10 19 16 10 22 3 3 6 12 8 4 12 9 5 6 2 4 6 5 7 9 10 10 5 4 4 7 7 8 42 17 7 17 40 51 60
53 55 56 66 59 55 54 47 44 40 35 28 23 19 13 10 11 3 8 20 31 16 18 13 13 21 20 10 5 1 2 6 7 5 8 7 6 5 5 5 10 5 3 8 12 9 26 43 28 45 52 55 51 59
60 55 57 53 59 57 54 51 48 44 40 33 28 23 16 12 9 6 6 6 20 13 32 24 20 21 14 22 15 7 7 4 9 6 5 6 4 1 3 8 7 10 11 2 8 7 23 38 42 52 55 50 49 51
60 62 57 53 51 56 51 54 47 47 43 36 32 25 19 16 13 10 9 13 9 11 10 3 11 12 11 9 11 16 11 4 2 2 6 5 4 9 8 8 5 1 8 6 9 12 31 20 52 54 43 39 51 50
53 58 58 54 57 52 47 45 44 44 43 38 33 28 25 18 14 11 12 2 6 3 9 16 15 18 23 15 16 13 15 9 3 6 9 8 32 11 7 4 5 6 4 4 7 26 17 43 61 43 47 50 44 55
58 55 51 48 56 54 52 54 48 42 42 39 35 28 25 20 12 5 4 7 10 4 6 7 5 19 29 16 16 18 16 11 8 7 11 15 30 26 5 5 9 25 8 12 9 33 41 49 40 42 48 36 51 60
55 58 54 51 51 51 51 50 52 45 38 40 37 31 30 26 21 14 3 9 16 9 4 11 9 21 21 19 21 24 25 23 19 20 22 37 37 13 3 6 12 8 8 16 23 35 41 28 26 38 47 48 56 77
49 51 59 51 51 56 51 50 50 50 44 39 38 35 37 28 24 24 24 22 16 11 8 7 8 14 30 18 12 29 28 35 21 23 17 20 34 11 5 11 6 4 18 24 29 32 36 34 45 49 39 54 68 81
47 48 52 55 51 50 40 45 41 48 40 44 40 38 34 29 19 13 17 13 13 13 7 10 6 4 26 16 17 20 25 9 25 22 28 19 8 8 15 26 10 7 23 23 28 32 42 37 34 33 48 58 68 73
44 44 42 45 50 49 45 39 40 41 48 37 39 23 13 15 23 16 8 7 7 11 14 12 13 6 25 18 21 9 15 8 7 12 20 4 7 38 30 25 16 13 16 23 35 33 39 20 28 42 38 53 67 68
44 41 37 44 49 47 44 42 39 41 39 48 24 16 26 29 21 14 9 12 16 10 18 19 38 13 13 5 3 7 3 7 5 8 10 5 4 16 16 13 13 10 17 21 25 37 43 24 29 46 48 54 62 56
44 43 39 37 47 48 45 30 50 53 46 42 29 42 36 13 8 7 6 10 14 11 22 20 28 39 7 8 3 6 3 5 9 9 3 5 4 18 10 12 3 7 20 22 29 34 35 28 37 44 43 53 59 49
41 45 45 36 37 43 45 25 42 55 53 52 15 19 15 10 7 13 16 11 9 17 22 28 20 25 9 8 5 4 6 7 16 4 5 3 13 20 15 9 3 9 20 26 31 32 37 33 36 37 47 54 50 53
34 41 46 42 37 36 41 31 70 56 45 9 16 14 13 11 12 14 15 10 20 23 41 44 31 11 9 7 7 6 7 5 7 4 8 1 21 17 12 3 8 14 20 28 33 39 44 32 30 28 44 54 44 48
32 36 41 44 41 40 35 52 74 66 22 7 8 14 16 20 22 28 43 22 11 12 43 34 18 10 10 6 8 6 7 8 9 8 5 19 20 19 16 7 13 17 24 31 31 37 46 27 20 34 49 46 40 42
30 32 47 46 40 39 31 74 71 48 14 12 10 5 10 19 23 30 26 32 17 23 36 15 3 3 7 5 9 11 7 9 2 7 22 8 9 15 14 9 16 24 31 34 30 39 37 28 31 33 38 42 40 40
36 35 33 47 44 45 43 88 44 17 12 11 12 25 15 21 23 19 15 25 27 22 6 6 10 13 5 6 8 7 7 1 13 5 7 10 12 20 13 13 23 25 34 38 43 38 26 21 25 30 42 45 39 37
43 38 26 41 56 45 67 39 23 15 10 16 6 16 31 10 20 12 14 18 30 5 23 6 12 11 8 6 7 5 2 5 14 7 23 12 10 18 20 25 26 28 33 39 40 38 19 27 32 27 37 40 34 34
43 35 39 57 69 51 13 15 15 16 14 9 15 18 22 21 22 24 28 22 22 20 10 5 6 4 6 4 16 24 19 14 12 2 13 15 21 23 27 23 25 30 23 42 48 21 22 18 18 21 34 33 31 31
42 41 44 54 72 14 12 10 20 10 13 17 20 27 16 16 33 29 22 22 25 38 9 10 9 10 9 16 15 11 19 13 12 18 15 13 19 7 14 15 20 28 35 40 19 16 15 12 12 21 37 30 27 26
36 39 63 77 47 12 11 16 14 15 11 12 26 20 7 21 18 19 25 24 19 14 15 23 20 25 26 25 23 17 17 15 18 20 26 30 28 30 34 35 38 33 29 32 10 6 14 10 3 21 35 26 24 22
58 93 71 30 12 9 9 19 15 22 16 16 28 17 8 8 12 18 20 28 20 27 32 31 32 27 28 31 32 34 31 26 22 23 25 30 32 30 28 25 28 29 32 24 14 6 9 5 7 21 34 22 23 21
70 58 21 11 8 6 4 17 7 14 8 17 30 12 11 16 24 33 20 34 37 41 47 44 40 41 44 44 39 26 25 23 22 24 27 29 31 32 27 25 28 28 33 15 13 17 8 3 7 29 25 20 28 31
49 11 9 9 7 6 14 8 11 13 13 16 13 11 19 21 31 26 10 30 39 44 49 50 46 50 50 50 43 35 35 37 36 34 30 30 32 31 20 20 30 14 2 8 3 17 12 7 12 32 25 20 21 26
10 8 12 4 10 9 10 11 10 7 9 12 13 9 8 16 7 12 16 22 29 31 36 39 38 35 34 32 38 41 31 34 33 32 25 25 12 13 23 16 12 30 16 28 12 19 14 11 13 24 34 21 24 32
6 9 13 9 14 12 12 12 16 19 14 17 12 10 10 5 8 6 3 5 13 7 5 1 10 19 17 18 7 19 41 28 21 21 7 16 13 9 8 14 12 4 12 16 11 15 17 16 14 14 20 34 33 41
2 7 10 9 14 15 7 14 26 16 12 13 11 12 6 7 8 6 12 16 14 13 13 11 11 8 4 10 7 9 22 17 14 6 4 11 14 20 8 15 22 25 24 13 12 14 23 23 21 21 26 23 29 37
3 4 17 13 11 11 10 3 8 6 3 1 11 7 10 6 5 8 8 5 10 12 14 11 17 12 9 5 7 11 11 15 5 6 3 10 12 13 12 9 5 7 20 25 36 18 33 28 29 27 22 24 22 30
2 10 9 16 18 6 4 3 6 12 13 11 3 3 5 10 15 17 9 5 3 9 7 4 6 4 6 4 6 20 13 12 16 18 6 6 7 10 9 2 9 30 28 28 32 41 37 25 27 29 27 24 25 25
3 8 9 5 7 6 6 8 16 13 16 14 8 7 16 16 14 11 11 13 13 11 13 16 14 9 5 4 7 12 7 10 8 6 4 11 8 8 1 11 26 27 31 22 47 37 30 34 36 35 33 36 37 36
6 8 9 8 5 14 14 8 7 7 9 9 9 4 2 4 7 15 18 20 22 27 30 34 35 32 23 19 5 9 7 0 2 7 4 6 10 15 21 13 24 27 33 35 34 31 32 32 33 31 27 32 34 37
5 4 6 5 6 2 3 4 5 5 5 5 5 3 4 4 3 4 9 16 14 16 17 19 23 31 35 33 23 2 11 20 19 11 7 9 0 9 14 6 34 31 31 34 37 27 22 22 24 33 30 35 33 30
6 8 6 7 8 7 11 11 7 7 3 4 5 4 4 4 5 7 14 13 8 10 13 16 15 13 22 35 29 18 8 5 7 16 14 10 9 7 18 28 48 40 27 29 29 34 27 29 29 31 29 37 37 36
Wind_Direction_500mb
240 253 249 247 248 248 250 249 251 254 260 270 276 292 304 330 345 356 306 350 10 299 290 337 32 21 351 342 12 0 2 18 344 295 285 347 6 353 12 349 345 301 1 327 359 298 309 4 12 87 264 305 319 325
239 253 256 241 243 244 245 247 244 246 247 259 262 268 275 307 332 351 49 347 336 308 245 254 265 259 233 237 255 277 244 291 52 27 16 355 335 313 23 288 326 334 249 195 173 236 356 341 344 339 331 322 324 325
237 241 247 247 245 239 239 238 238 239 239 244 249 258 266 270 316 306 359 348 331 313 311 273 254 252 208 215 253 221 106 122 109 108 352 269 282 68 327 276 355 295 21 24 23 300 349 335 334 328 322 324 329 329
238 242 237 237 249 233 239 228 231 232 231 234 242 251 257 262 284 288 291 301 331 311 280 188 234 229 255 236 276 217 172 160 136 75 251 251 257 247 231 239 262 331 51 354 269 323 333 316 321 316 329 337 335 328
240 237 232 232 237 235 223 221 224 226 225 228 238 244 249 252 266 282 305 260 317 241 310 296 248 242 227 254 204 220 234 228 254 285 236 249 268 308 317 301 276 105 188 155 243 305 290 302 317 333 349 343 336 336
241 236 229 231 241 234 226 220 219 223 224 226 232 237 240 233 235 262 108 100 217 294 301 294 293 178 208 242 191 203 206 229 221 244 285 273 287 296 252 230 304 324 333 313 275 325 305 305 326 341 350 340 334 342
242 238 234 229 234 241 224 229 217 219 226 224 228 226 228 228 223 218 211 196 200 353 295 292 269 195 210 202 214 221 224 225 236 256 239 258 275 205 239 256 312 355 298 308 300 306 302 333 351 348 345 329 331 341
241 238 238 231 231 240 232 214 216 217 221 224 217 222 221 223 229 244 250 252 273 274 247 273 262 163 187 199 223 230 224 215 220 222 241 248 260 207 244 248 234 259 288 294 296 320 333 337 330 349 333 323 333 346
240 239 236 234 228 233 230 216 217 215 209 212 212 216 215 216 226 216 236 228 218 220 270 232 252 151 180 228 243 204 202 209 242 217 233 240 202 216 221 240 182 248 268 312 323 311 330 316 344 343 332 332 340 344
234 238 230 228 224 220 222 222 213 215 207 203 193 175 186 198 206 185 191 220 207 214 230 250 256 250 187 195 201 210 211 195 245 227 227 182 233 251 259 249 249 256 272 307 318 334 336 354 350 340 335 336 340 339
231 226 223 221 221 216 219 212 213 208 199 182 162 145 152 156 144 165 205 207 185 226 217 228 217 225 226 128 332 315 355 343 312 269 140 239 260 233 185 196 214 240 296 318 338 341 340 343 347 335 334 337 340 342
230 216 217 223 221 216 216 209 213 207 195 187 167 138 131 149 148 172 210 229 209 225 194 204 206 200 148 124 119 285 225 217 242 300 147 268 267 147 178 194 129 338 324 336 342 341 343 332 334 339 334 338 343 341
225 216 213 217 212 209 216 210 207 203 178 148 124 132 168 150 174 200 187 207 216 192 168 174 161 176 114 144 178 249 236 243 308 262 242 199 132 138 153 176 332 297 341 338 332 338 330 324 338 330 330 338 343 341
224 215 211 212 209 207 201 202 196 185 156 165 148 136 197 170 225 201 212 199 199 190 172 166 150 148 138 149 207 214 232 222 246 176 237 210 133 140 157 189 303 346 335 326 333 339 336 320 330 326 332 341 345 344
221 214 207 205 205 204 190 205 198 182 176 177 184 184 195 211 223 220 219 261 239 244 171 148 150 154 127 175 195 214 236 232 216 218 147 118 133 151 170 158 302 312 313 313 320 329 327 325 334 335 330 345 352 352
213 210 210 200 197 194 187 196 186 191 162 182 236 175 206 200 232 240 251 213 187 151 161 90 88 241 171 193 204 210 209 222 261 80 122 135 201 220 196 227 282 302 310 319 323 324 322 314 319 330 338 348 356 351
199 214 213 198 187 186 192 181 179 186 190 202 222 215 234 230 219 210 167 182 166 151 180 144 206 189 164 209 206 226 214 90 93 81 189 232 224 202 229 268 289 304 313 313 318 316 303 338 330 326 342 354 348 349
205 199 180 178 177 177 168 184 181 183 212 223 195 218 208 249 211 202 167 160 170 184 205 204 255 188 194 232 231 233 235 319 291 310 209 210 196 227 239 277 287 295 305 312 312 319 304 309 314 331 352 354 354 353
190 189 180 175 182 159 126 152 172 182 208 174 216 198 189 208 194 182 189 176 193 216 166 247 269 226 230 273 332 328 340 10 25 269 271 228 246 230 247 283 289 296 310 312 319 308 311 318 328 348 3 358 3 3
184 192 184 179 182 129 132 147 151 179 194 189 182 190 193 206 199 187 182 189 214 234 176 218 205 216 263 256 304 313 321 335 336 339 325 325 2 265 284 312 324 323 315 315 302 303 298 286 310 354 3 4 7 12
190 180 175 175 166 131 135 153 170 183 167 175 163 161 187 189 185 197 210 206 223 199 208 237 233 240 252 277 284 292 306 302 297 298 305 311 305 306 308 308 307 304 305 302 268 284 199 237 328 2 10 15 18 13
144 155 147 134 118 123 175 187 177 163 163 159 153 160 156 184 207 221 205 206 229 222 236 247 250 255 264 268 270 267 276 276 278 282 281 279 285 289 290 288 288 294 296 298 294 169 161 131 346 13 20 38 22 21
151 140 121 85 116 130 168 153 146 147 156 181 158 180 192 187 202 201 208 220 226 233 233 241 247 252 254 254 257 265 258 260 266 271 276 279 276 273 268 277 287 298 347 165 208 159 147 177 32 27 42 55 56 48
132 98 111 133 137 148 159 165 168 172 187 175 178 210 187 199 191 196 214 229 230 231 230 237 237 239 245 243 239 251 259 254 249 257 267 268 270 276 252 262 285 294 11 296 21 113 127 63 76 48 47 73 74 66
95 134 132 199 181 140 152 160 174 173 170 195 189 185 198 193 193 202 213 224 227 230 232 231 226 223 234 243 235 240 240 235 232 227 255 258 291 306 294 259 311 291 233 227 185 135 137 130 109 64 60 102 88 88
134 166 186 151 158 170 155 162 181 184 193 185 200 212 186 167 199 192 158 324 75 57 166 153 130 216 250 238 343 280 224 207 218 206 213 274 307 29 13 302 325 277 118 139 126 160 159 161 147 120 85 78 109 80
128 135 166 155 157 163 178 164 170 190 183 198 180 171 151 165 215 108 93 74 75 48 11 297 236 318 6 340 124 82 145 157 199 162 338 357 320 222 191 227 253 242 231 182 141 147 186 150 153 104 102 101 92 93
62 254 142 154 153 163 94 129 153 178 192 205 134 152 160 210 72 73 109 117 120 103 84 57 86 151 194 57 166 167 190 163 167 125 163 100 128 129 139 130 106 56 99 162 161 150 141 134 127 122 111 113 118 101
148 120 135 165 130 93 132 91 46 47 26 15 40 70 59 72 129 142 149 121 117 63 87 105 134 125 136 25 51 178 149 185 176 171 190 244 281 261 283 355 64 140 139 145 145 143 142 135 123 116 117 119 111 113
115 20 105 95 109 113 95 53 84 75 56 54 48 82 89 107 143 181 212 239 256 245 223 208 201 199 223 193 81 195 113 101 97 143 196 279 284 88 293 245 182 153 137 116 148 140 132 135 135 130 125 121 120 118
61 55 66 74 70 71 86 79 82 73 62 47 41 62 126 201 262 286 281 278 278 267 252 240 231 227 229 214 233 8 48 196 140 55 80 102 54 51 34 111 146 146 152 154 160 153 149 150 151 149 137 129 131 125
104 129 121 132 109 201 236 103 92 83 31 48 57 22 350 8 314 280 310 318 283 262 253 247 237 225 222 219 208 174 4 29 198 159 129 128 115 326 330 268 169 166 163 166 166 171 172 173 166 157 135 140 138 132
144 171 165 128 138 141 144 131 120 121 115 94 70 63 47 12 341 325 10 17 346 242 225 216 214 219 202 200 181 128 151 3 164 167 177 183 233 341 110 130 160 172 175 168 167 168 179 154 148 155 149 153 145 141
Wind_Speed_850mb
62 49 64 61 58 52 50 43 41 36 30 26 21 17 12 11 11 7 10 19 16 10 22 3 3 6 12 8 4 12 9 5 6 2 4 6 5 7 9 10 10 5 4 4 7 7 8 42 17 7 17 40 51 60
53 55 56 66 59 55 54 47 44 40 35 28 23 19 13 10 11 3 8 20 31 16 18 13 13 21 20 10 5 1 2 6 7 5 8 7 6 5 5 5 10 5 3 8 12 9 26 43 28 45 52 55 51 59
60 55 57 53 59 57 54 51 48 44 40 33 28 23 16 12 9 6 6 6 20 13 32 24 20 21 14 22 15 7 7 4 9 6 5 6 4 1 3 8 7 10 11 2 8 7 23 38 42 52 55 50 49 51
60 62 57 53 51 56 51 54 47 47 43 36 32 25 19 16 13 10 9 13 9 11 10 3 11 12 11 9 11 16 11 4 2 2 6 5 4 9 8 8 5 1 8 6 9 12 31 20 52 54 43 39 51 50
53 58 58 54 57 52 47 45 44 44 43 38 33 28 25 18 14 11 12 2 6 3 9 16 15 18 23 15 16 13 15 9 3 6 9 8 32 11 7 4 5 6 4 4 7 26 17 43 61 43 47 50 44 55
58 55 51 48 56 54 52 54 48 42 42 39 35 28 25 20 12 5 4 7 10 4 6 7 5 19 29 16 16 18 16 11 8 7 11 15 30 26 5 5 9 25 8 12 9 33 41 49 40 42 48 36 51 60
55 58 54 51 51 51 51 50 52 45 38 40 37 31 30 26 21 14 3 9 16 9 4 11 9 21 21 19 21 24 25 23 19 20 22 37 37 13 3 6 12 8 8 16 23 35 41 28 26 38 47 48 56 77
49 51 59 51 51 56 51 50 50 50 44 39 38 35 37 28 24 24 24 22 16 11 8 7 8 14 30 18 12 29 28 35 21 23 17 20 34 11 5 11 6 4 18 24 29 32 36 34 45 49 39 54 68 81
47 48 52 55 51 50 40 45 41 48 40 44 40 38 34 29 19 13 17 13 13 13 7 10 6 4 26 16 17 20 25 9 25 22 28 19 8 8 15 26 10 7 23 23 28 32 42 37 34 33 48 58 68 73
44 44 42 45 50 49 45 39 40 41 48 37 39 23 13 15 23 16 8 7 7 11 14 12 13 6 25 18 21 9 15 8 7 12 20 4 7 38 30 25 16 13 16 23 35 33 39 20 28 42 38 53 67 68
44 41 37 44 49 47 44 42 39 41 39 48 24 16 26 29 21 14 9 12 16 10 18 19 38 13 13 5 3 7 3 7 5 8 10 5 4 16 16 13 13 10 17 21 25 37 43 24 29 46 48 54 62 56
44 43 39 37 47 48 45 30 50 53 46 42 29 42 36 13 8 7 6 10 14 11 22 20 28 39 7 8 3 6 3 5 9 9 3 5 4 18 10 12 3 7 20 22 29 34 35 28 37 44 43 53 59 49
41 45 45 36 37 43 45 25 42 55 53 52 15 19 15 10 7 13 16 11 9 17 22 28 20 25 9 8 5 4 6 7 16 4 5 3 13 20 15 9 3 9 20 26 31 32 37 33 36 37 47 54 50 53
34 41 46 42 37 36 41 31 70 56 45 9 16 14 13 11 12 14 15 10 20 23 41 44 31 11 9 7 7 6 7 5 7 4 8 1 21 17 12 3 8 14 20 28 33 39 44 32 30 28 44 54 44 48
32 36 41 44 41 40 35 52 74 66 22 7 8 14 16 20 22 28 43 22 11 12 43 34 18 10 10 6 8 6 7 8 9 8 5 19 20 19 16 7 13 17 24 31 31 37 46 27 20 34 49 46 40 42
30 32 47 46 40 39 31 74 71 48 14 12 10 5 10 19 23 30 26 32 17 23 36 15 3 3 7 5 9 11 7 9 2 7 22 8 9 15 14 9 16 24 31 34 30 39 37 28 31 33 38 42 40 40
36 35 33 47 44 45 43 88 44 17 12 11 12 25 15 21 23 19 15 25 27 22 6 6 10 13 5 6 8 7 7 1 13 5 7 10 12 20 13 13 23 25 34 38 43 38 26 21 25 30 42 45 39 37
43 38 26 41 56 45 67 39 23 15 10 16 6 16 31 10 20 12 14 18 30 5 23 6 12 11 8 6 7 5 2 5 14 7 23 12 10 18 20 25 26 28 33 39 40 38 19 27 32 27 37 40 34 34
43 35 39 57 69 51 13 15 15 16 14 9 15 18 22 21 22 24 28 22 22 20 10 5 6 4 6 4 16 24 19 14 12 2 13 15 21 23 27 23 25 30 23 42 48 21 22 18 18 21 34 33 31 31
42 41 44 54 72 14 12 10 20 10 13 17 20 27 16 16 33 29 22 22 25 38 9 10 9 10 9 16 15 11 19 13 12 18 15 13 19 7 14 15 20 28 35 40 19 16 15 12 12 21 37 30 27 26
36 39 63 77 47 12 11 16 14 15 11 12 26 20 7 21 18 19 25 24 19 14 15 23 20 25 26 25 23 17 17 15 18 20 26 30 28 30 34 35 38 33 29 32 10 6 14 10 3 21 35 26 24 22
58 93 71 30 12 9 9 19 15 22 16 16 28 17 8 8 12 18 20 28 20 27 32 31 32 27 28 31 32 34 31 26 22 23 25 30 32 30 28 25 28 29 32 24 14 6 9 5 7 21 34 22 23 21
70 58 21 11 8 6 4 17 7 14 8 17 30 12 11 16 24 33 20 34 37 41 47 44 40 41 44 44 39 26 25 23 22 24 27 29 31 32 27 25 28 28 33 15 13 17 8 3 7 29 25 20 28 31
49 11 9 9 7 6 14 8 11 13 13 16 13 11 19 21 31 26 10 30 39 44 49 50 46 50 50 50 43 35 35 37 36 34 30 30 32 31 20 20 30 14 2 8 3 17 12 7 12 32 25 20 21 26
10 8 12 4 10 9 10 11 10 7 9 12 13 9 8 16 7 12 16 22 29 31 36 39 38 35 34 32 38 41 31 34 33 32 25 25 12 13 23 16 12 30 16 28 12 19 14 11 13 24 34 21 24 32
6 9 13 9 14 12 12 12 16 19 14 17 12 10 10 5 8 6 3 5 13 7 5 1 10 19 17 18 7 19 41 28 21 21 7 16 13 9 8 14 12 4 12 16 11 15 17 16 14 14 20 34 33 41
2 7 10 9 14 15 7 14 26 16 12 13 11 12 6 7 8 6 12 16 14 13 13 11 11 8 4 10 7 9 22 17 14 6 4 11 14 20 8 15 22 25 24 13 12 14 23 23 21 21 26 23 29 37
3 4 17 13 11 11 10 3 8 6 3 1 11 7 10 6 5 8 8 5 10 12 14 11 17 12 9 5 7 11 11 15 5 6 3 10 12 13 12 9 5 7 20 25 36 18 33 28 29 27 22 24 22 30
2 10 9 16 18 6 4 3 6 12 13 11 3 3 5 10 15 17 9 5 3 9 7 4 6 4 6 4 6 20 13 12 16 18 6 6 7 10 9 2 9 30 28 28 32 41 37 25 27 29 27 24 25 25
3 8 9 5 7 6 6 8 16 13 16 14 8 7 16 16 14 11 11 13 13 11 13 16 14 9 5 4 7 12 7 10 8 6 4 11 8 8 1 11 26 27 31 22 47 37 30 34 36 35 33 36 37 36
6 8 9 8 5 14 14 8 7 7 9 9 9 4 2 4 7 15 18 20 22 27 30 34 35 32 23 19 5 9 7 0 2 7 4 6 10 15 21 13 24 27 33 35 34 31 32 32 33 31 27 32 34 37
5 4 6 5 6 2 3 4 5 5 5 5 5 3 4 4 3 4 9 16 14 16 17 19 23 31 35 33 23 2 11 20 19 11 7 9 0 9 14 6 34 31 31 34 37 27 22 22 24 33 30 35 33 30
6 8 6 7 8 7 11 11 7 7 3 4 5 4 4 4 5 7 14 13 8 10 13 16 15 13 22 35 29 18 8 5 7 16 14 10 9 7 18 28 48 40 27 29 29 34 27 29 29 31 29 37 37 36
Wind_Direction_850mb
240 253 249 247 248 248 250 249 251 254 260 270 276 292 304 330 345 356 306 350 10 299 290 337 32 21 351 342 12 0 2 18 344 295 285 347 6 353 12 349 345 301 1 327 359 298 309 4 12 87 264 305 319 325
239 253 256 241 243 244 245 247 244 246 247 259 262 268 275 307 332 351 49 347 336 308 245 254 265 259 233 237 255 277 244 291 52 27 16 355 335 313 23 288 326 334 249 195 173 236 356 341 344 339 331 322 324 325
237 241 247 247 245 239 239 238 238 239 239 244 249 258 266 270 316 306 359 348 331 313 311 273 254 252 208 215 253 221 106 122 109 108 352 269 282 68 327 276 355 295 21 24 23 300 349 335 334 328 322 324 329 329
238 242 237 237 249 233 239 228 231 232 231 234 242 251 257 262 284 288 291 301 331 311 280 188 234 229 255 236 276 217 172 160 136 75 251 251 257 247 231 239 262 331 51 354 269 323 333 316 321 316 329 337 335 328
240 237 232 232 237 235 223 221 224 226 225 228 238 244 249 252 266 282 305 260 317 241 310 296 248 242 227 254 204 220 234 228 254 285 236 249 268 308 317 301 276 105 188 155 243 305 290 302 317 333 349 343 336 336
241 236 229 231 241 234 226 220 219 223 224 226 232 237 240 233 235 262 108 100 217 294 301 294 293 178 208 242 191 203 206 229 221 244 285 273 287 296 252 230 304 324 333 313 275 325 305 305 326 341 350 340 334 342
242 238 234 229 234 241 224 229 217 219 226 224 228 226 228 228 223 218 211 196 200 353 295 292 269 195 210 202 214 221 224 225 236 256 239 258 275 205 239 256 312 355 298 308 300 306 302 333 351 348 345 329 331 341
241 238 238 231 231 240 232 214 216 217 221 224 217 222 221 223 229 244 250 252 273 274 247 273 262 163 187 199 223 230 224 215 220 222 241 248 260 207 244 248 234 259 288 294 296 320 333 337 330 349 333 323 333 346
240 239 236 234 228 233 230 216 217 215 209 212 212 216 215 216 226 216 236 228 218 220 270 232 252 151 180 228 243 204 202 209 242 217 233 240 202 216 221 240 182 248 268 312 323 311 330 316 344 343 332 332 340 344
234 238 230 228 224 220 222 222 213 215 207 203 193 175 186 198 206 185 191 220 207 214 230 250 256 250 187 195 201 210 211 195 245 227 227 182 233 251 259 249 249 256 272 307 318 334 336 354 350 340 335 336 340 339
231 226 223 221 221 216 219 212 213 208 199 182 162 145 152 156 144 165 205 207 185 226 217 228 217 225 226 128 332 315 355 343 312 269 140 239 260 233 185 196 214 240 296 318 338 341 340 343 347 335 334 337 340 342
230 216 217 223 221 216 216 209 213 207 195 187 167 138 131 149 148 172 210 229 209 225 194 204 206 200 148 124 119 285 225 217 242 300 147 268 267 147 178 194 129 338 324 336 342 341 343 332 334 339 334 338 343 341
225 216 213 217 212 209 216 210 207 203 178 148 124 132 168 150 174 200 187 207 216 192 168 174 161 176 114 144 178 249 236 243 308 262 242 199 132 138 153 176 332 297 341 338 332 338 330 324 338 330 330 338 343 341
224 215 211 212 209 207 201 202 196 185 156 165 148 136 197 170 225 201 212 199 199 190 172 166 150 148 138 149 207 214 232 222 246 176 237 210 133 140 157 189 303 346 335 326 333 339 336 320 330 326 332 341 345 344
221 214 207 205 205 204 190 205 198 182 176 177 184 184 195 211 223 220 219 261 239 244 171 148 150 154 127 175 195 214 236 232 216 218 147 118 133 151 170 158 302 312 313 313 320 329 327 325 334 335 330 345 352 352
213 210 210 200 197 194 187 196 186 191 162 182 236 175 206 200 232 240 251 213 187 151 161 90 88 241 171 193 204 210 209 222 261 80 122 135 201 220 196 227 282 302 310 319 323 324 322 314 319 330 338 348 356 351
199 214 213 198 187 186 192 181 179 186 190 202 222 215 234 230 219 210 167 182 166 151 180 144 206 189 164 209 206 226 214 90 93 81 189 232 224 202 229 268 289 304 313 313 318 316 303 338 330 326 342 354 348 349
205 199 180 178 177 177 168 184 181 183 212 223 195 218 208 249 211 202 167 160 170 184 205 204 255 188 194 232 231 233 235 319 291 310 209 210 196 227 239 277 287 295 305 312 312 319 304 309 314 331 352 354 354 353
190 189 180 175 182 159 126 152 172 182 208 174 216 198 189 208 194 182 189 176 193 216 166 247 269 226 230 273 332 328 340 10 25 269 271 228 246 230 247 283 289 296 310 312 319 308 311 318 328 348 3 358 3 3
184 192 184 179 182 129 132 147 151 179 194 189 182 190 193 206 199 187 182 189 214 234 176 218 205 216 263 256 304 313 321 335 336 339 325 325 2 265 284 312 324 323 315 315 302 303 298 286 310 354 3 4 7 12
190 180 175 175 166 131 135 153 170 183 167 175 163 161 187 189 185 197 210 206 223 199 208 237 233 240 252 277 284 292 306 302 297 298 305 311 305 306 308 308 307 304 305 302 268 284 199 237 328 2 10 15 18 13
144 155 147 134 118 123 175 187 177 163 163 159 153 160 156 184 207 221 205 206 229 222 236 247 250 255 264 268 270 267 276 276 278 282 281 279 285 289 290 288 288 294 296 298 294 169 161 131 346 13 20 38 22 21
151 140 121 85 116 130 168 153 146 147 156 181 158 180 192 187 202 201 208 220 226 233 233 241 247 252 254 254 257 265 258 260 266 271 276 279 276 273 268 277 287 298 347 165 208 159 147 177 32 27 42 55 56 48
132 98 111 133 137 148 159 165 168 172 187 175 178 210 187 199 191 196 214 229 230 231 230 237 237 239 245 243 239 251 259 254 249 257 267 268 270 276 252 262 285 294 11 296 21 113 127 63 76 48 47 73 74 66
95 134 132 199 181 140 152 160 174 173 170 195 189 185 198 193 193 202 213 224 227 230 232 231 226 223 234 243 235 240 240 235 232 227 255 258 291 306 294 259 311 291 233 227 185 135 137 130 109 64 60 102 88 88
134 166 186 151 158 170 155 162 181 184 193 185 200 212 186 167 199 192 158 324 75 57 166 153 130 216 250 238 343 280 224 207 218 206 213 274 307 29 13 302 325 277 118 139 126 160 159 161 147 120 85 78 109 80
128 135 166 155 157 163 178 164 170 190 183 198 180 171 151 165 215 108 93 74 75 48 11 297 236 318 6 340 124 82 145 157 199 162 338 357 320 222 191 227 253 242 231 182 141 147 186 150 153 104 102 101 92 93
62 254 142 154 153 163 94 129 153 178 192 205 134 152 160 210 72 73 109 117 120 103 84 57 86 151 194 57 166 167 190 163 167 125 163 100 128 129 139 130 106 56 99 162 161 150 141 134 127 122 111 113 118 101
148 120 135 165 130 93 132 91 46 47 26 15 40 70 59 72 129 142 149 121 117 63 87 105 134 125 136 25 51 178 149 185 176 171 190 244 281 261 283 355 64 140 139 145 145 143 142 135 123 116 117 119 111 113
115 20 105 95 109 113 95 53 84 75 56 54 48 82 89 107 143 181 212 239 256 245 223 208 201 199 223 193 81 195 113 101 97 143 196 279 284 88 293 245 182 153 137 116 148 140 132 135 135 130 125 121 120 118
61 55 66 74 70 71 86 79 82 73 62 47 41 62 126 201 262 286 281 278 278 267 252 240 231 227 229 214 233 8 48 196 140 55 80 102 54 51 34 111 146 146 152 154 160 153 149 150 151 149 137 129 131 125
104 129 121 132 109 201 236 103 92 83 31 48 57 22 350 8 314 280 310 318 283 262 253 247 237 225 222 219 208 174 4 29 198 159 129 128 115 326 330 268 169 166 163 166 166 171 172 173 166 157 135 140 138 132
144 171 165 128 138 141 144 131 120 121 115 94 70 63 47 12 341 325 10 17 346 242 225 216 214 219 202 200 181 128 151 3 164 167 177 183 233 341 110 130 160 172 175 168 167 168 179 154 148 155 149 153 145 141